Simultaneous Nadir Overpasses (SNOs) Predictions

Prediction of SNOs between NOAA-21 and METOP-B Satellite Orbit:

Table of predicted SNOs for the next 14.0 days since TLE Epoch: 3/9/2024
Index Date (NOAA-21) Time (NOAA-21) Lat,Lon (NOAA-21) SZA (NOAA-21 ) Date (METOP-B) Time (METOP-B) Lat,Lon (METOP-B) SZA (METOP-B ) Distance(km) Time Diff (sec)
1 03/16/2024 10:08:22 73.74, 17.21 75.53 03/16/2024 10:09:29 73.67, 19.88 75.29 83.51 67
2 03/16/2024 10:59:04 -73.63,-175.21 104.61 03/16/2024 11:00:13 -73.57,-173.02 104.81 68.94 69
3 03/16/2024 11:49:46 73.44, -7.47 75.17 03/16/2024 11:50:56 73.40, -6.08 75.03 44.44 70
4 03/16/2024 12:40:28 -73.33, 160.10 104.97 03/16/2024 12:41:40 -73.30, 161.03 105.07 30.01 72
5 03/16/2024 13:31:10 73.14, -32.17 74.81 03/16/2024 13:32:23 73.13, -32.01 74.77 5.42 73
6 03/16/2024 14:21:53 -73.08, 135.27 105.28 03/16/2024 14:23:06 -73.08, 135.21 105.29 1.96 73
7 03/16/2024 15:12:39 73.09, -57.44 74.73 03/16/2024 15:13:45 73.11, -57.39 74.72 2.42 66
8 03/16/2024 16:03:23 -73.09, 109.90 105.30 03/16/2024 16:04:28 -73.06, 109.83 105.34 3.16 65
9 03/16/2024 16:54:09 73.10, -82.82 74.70 03/16/2024 16:55:07 73.09, -82.77 74.68 1.40 58
10 03/16/2024 17:44:53 -73.09, 84.52 105.33 03/16/2024 17:45:49 -73.10, 84.56 105.34 1.59 56
11 03/16/2024 18:35:39 73.10,-108.19 74.67 03/16/2024 18:36:29 73.07,-108.16 74.63 2.87 50
12 03/16/2024 19:26:23 -73.09, 59.14 105.36 03/16/2024 19:27:11 -73.08, 59.18 105.38 1.58 48
13 03/16/2024 20:17:08 73.05,-133.46 74.59 03/16/2024 20:17:51 73.05,-133.54 74.59 2.62 43
14 03/16/2024 21:07:52 -73.04, 33.88 105.44 03/16/2024 21:08:33 -73.06, 33.79 105.43 3.42 41
15 03/16/2024 21:58:38 73.05,-158.84 74.56 03/16/2024 21:59:13 73.03,-158.92 74.54 3.08 35
16 03/16/2024 22:49:22 -73.04, 8.50 105.47 03/16/2024 22:49:55 -73.04, 8.41 105.47 2.81 33
17 03/16/2024 23:40:08 73.05, 175.79 74.53 03/16/2024 23:40:34 73.07, 175.81 74.54 1.97 26
18 03/17/2024 00:30:51 -73.04, -16.88 105.50 03/17/2024 00:31:15 -73.07, -16.86 105.47 3.34 24
19 03/17/2024 01:21:37 73.05, 150.41 74.51 03/17/2024 01:21:55 73.05, 150.43 74.50 0.65 18
20 03/17/2024 02:12:21 -73.04, -42.25 105.52 03/17/2024 02:12:37 -73.05, -42.24 105.52 1.13 16
21 03/17/2024 03:03:07 73.05, 125.03 74.48 03/17/2024 03:03:17 73.03, 125.04 74.45 2.69 10
22 03/17/2024 03:53:51 -73.04, -67.63 105.55 03/17/2024 03:53:59 -73.03, -67.62 105.56 1.19 8
23 03/17/2024 04:44:36 73.00, 99.76 74.40 03/17/2024 04:44:39 73.01, 99.66 74.41 3.41 3
24 03/17/2024 05:35:21 -73.04, -93.01 105.58 03/17/2024 05:35:21 -73.01, -93.01 105.61 3.41 0
25 03/17/2024 06:26:06 73.00, 74.39 74.37 03/17/2024 06:26:01 72.99, 74.28 74.36 3.84 5
26 03/17/2024 07:16:51 -73.04,-118.38 105.60 03/17/2024 07:16:42 -73.04,-118.28 105.61 3.37 9
27 03/17/2024 08:07:36 73.00, 49.01 74.34 03/17/2024 08:07:22 73.02, 49.01 74.36 1.78 14
28 03/17/2024 08:58:20 -72.99,-143.65 105.69 03/17/2024 08:58:04 -73.02,-143.66 105.65 3.31 16
29 03/17/2024 09:49:06 73.00, 23.63 74.32 03/17/2024 09:48:44 73.00, 23.62 74.32 0.58 22
30 03/17/2024 10:39:50 -72.99,-169.03 105.71 03/17/2024 10:39:26 -73.00,-169.04 105.70 1.14 24
31 03/17/2024 11:30:36 73.01, -1.74 74.29 03/17/2024 11:30:06 72.98, -1.76 74.27 2.80 30
32 03/17/2024 12:21:20 -73.00, 165.60 105.74 03/17/2024 12:20:48 -72.98, 165.58 105.74 1.34 32
33 03/17/2024 13:12:06 73.01, -27.12 74.26 03/17/2024 13:11:27 73.01, -27.03 74.27 2.94 39
34 03/17/2024 14:02:50 -73.00, 140.22 105.77 03/17/2024 14:02:09 -73.02, 140.30 105.74 3.48 41
35 03/17/2024 14:53:36 73.01, -52.50 74.23 03/17/2024 14:52:49 72.99, -52.41 74.23 3.20 47
36 03/17/2024 15:44:20 -73.00, 114.84 105.80 03/17/2024 15:43:31 -73.00, 114.92 105.79 2.57 49
37 03/17/2024 16:35:05 72.96, -77.76 74.15 03/17/2024 16:34:11 72.97, -77.79 74.18 1.92 54
38 03/17/2024 17:25:50 -73.00, 89.47 105.82 03/17/2024 17:24:53 -72.98, 89.54 105.83 3.36 57
39 03/17/2024 18:16:35 72.96,-103.14 74.12 03/17/2024 18:15:33 72.95,-103.18 74.14 1.26 62
40 03/17/2024 19:07:19 -72.95, 64.20 105.91 03/17/2024 19:06:15 -72.96, 64.16 105.88 1.59 64
41 03/17/2024 19:58:05 72.96,-128.52 74.10 03/17/2024 19:56:55 72.93,-128.56 74.09 3.15 70
42 03/17/2024 20:48:49 -72.95, 38.82 105.93 03/17/2024 20:47:37 -72.94, 38.78 105.92 1.87 72
43 03/17/2024 21:39:32 72.81,-153.57 73.90 03/17/2024 21:38:19 72.81,-154.15 73.96 18.91 73
44 03/17/2024 22:30:15 -72.75, 13.87 106.18 03/17/2024 22:29:02 -72.77, 13.08 106.10 26.03 73
45 03/17/2024 23:20:56 72.51,-178.32 73.54 03/17/2024 23:19:47 72.49, 179.85 73.65 61.10 69
46 03/18/2024 00:11:39 -72.45, -10.89 106.54 03/18/2024 00:10:30 -72.44, -12.91 106.41 67.94 69
47 03/18/2024 01:02:20 72.20, 156.91 73.18 03/18/2024 01:01:14 72.21, 153.97 73.39 99.77 66



Historial Predications of SNOs between NOAA-21 and METOP-B
